Regional Weather Roundup
Issued by NWS State College, PA

Home | Current Version | Previous Version | Graphics & Text | Print | Product List | Glossary On
Versions: 1 2 3 4 5 6 7 8 9 10 11 12 13 14 15 16 17 18 19 20 21 22 23 24 25 26 27 28 29 30 31 32 33 34 35 36 37 38 39 40 41 42 43 44 45 46 47 48 49 50
000
ASUS41 KCTP 112110
RWRCTP

REGIONAL WEATHER ROUNDUP
NATIONAL WEATHER SERVICE STATE COLLEGE PA
500 PM EDT FRI JUL 11 2014

Note: "fair" indicates few or no clouds below 12,000 feet with no
significant weather and/or obstructions to visibility.

* = STATION THAT DOES NOT REPORT PRECIPITATION /E.G. RAIN...SNOW...ETC/
    THUNDER OR FOG.

PAZ002>004-007>009-013>016-020>023-029>032-112200-
WESTERN PENNSYLVANIA

CITY           SKY/WX    TMP DP  RH WIND       PRES   REMARKS
ERIE           SUNNY     76  59  55 N8        30.19F
MEADVILLE      SUNNY     80  57  45 W7        30.20F
FRANKLIN*      MOSUNNY   81  57  44 SW6       30.21F
NEW CASTLE       N/A     83  58  42 CALM      30.19F
BEAVER COUNTY  SUNNY     84  57  39 SW3       30.19F
BUTLER*        MOSUNNY   82  59  44 W3        30.20F
PITTSBURGH INT MOSUNNY   84  58  40 VRB7      30.18F
PITTSBURGH     PTSUNNY   84  55  36 CALM      30.17F
INDIANA*       PTSUNNY   82  55  39 CALM      30.23F
LATROBE        MOSUNNY   84  61  45 CALM      30.19F
WASHINGTON CO* MOSUNNY   82  59  44 SW5       30.19F
$$

PAZ004>006-010>012-017>019-024>028-033>037-041-042-045-046-049>053-112200-
CENTRAL PENNSYLVANIA

CITY           SKY/WX    TMP DP  RH WIND       PRES   REMARKS
BRADFORD       SUNNY     78  53  41 VRB5      30.22F
DUBOIS         PTSUNNY   81  56  42 CALM      30.21S
CLEARFIELD     MOSUNNY   80  57  45 VRB6      30.21F
JOHNSTOWN      PTSUNNY   75  57  53 CALM      30.24F
ALTOONA        MOSUNNY   82  61  48 CALM      30.22F
STATE COLLEGE  MOSUNNY   79  57  47 VRB5      30.21F
WILLIAMSPORT   MOSUNNY   84  54  35 W3        30.16F
SELINSGROVE    SUNNY     85  56  37 CALM      30.17F
FT INDIANTOWN  MOSUNNY   81  66  61 E3        30.18F
CAPITAL CITY   MOSUNNY   84  59  42 E7        30.16F
HARRISBURG     MOSUNNY   88  62  41 SW3       30.15
YORK           SUNNY     84  62  47 E5        30.17F
$$

PAZ038>040-043-044-047-048-054-055-060>062-067>071-112200-
EASTERN PENNSYLVANIA

CITY           SKY/WX    TMP DP  RH WIND       PRES   REMARKS
SCRANTON       SUNNY     82  53  36 NW7       30.20F
MOUNT POCONO   MOSUNNY   74  55  51 VRB3      30.25F
ALLENTOWN      CLOUDY    81  61  50 N8        30.18S
QUAKERTOWN*    PTCLDY    86  61  42 NE6       30.19F
READING        MOSUNNY   84  62  47 NW7       30.16F
LANCASTER      MOSUNNY   83  59  44 CALM      30.17F
COATESVILLE    MOCLDY    82  63  51 E6        30.19F
POTTSTOWN      MOSUNNY   81  62  52 CALM      30.18F
BLUE BELL      SUNNY     86  61  42 CALM      30.16F
DOYLESTOWN     SUNNY     82  59  45 CALM      30.17F
WILLOW GROVE   NOT AVBL
NORTH PHILA    MOSUNNY   86  54  33 CALM      30.17F
PHILADELPHIA   MOSUNNY   86  55  34 NE5       30.16F
$$


USA.gov is the U.S. government's official web portal to all federal, state and local government web resources and services.